Leominster, MA

1:19 AM EST on January 20, 2017 (GMT -0500)
Fitchburg Municipal

Weather History for KFIT - February, 2014

Change the Weather History Date:

Tuesday, February 18, 2014

  Actual Average (KORH) Record (KORH)
Temperature  
Mean Temperature 14 °F -  
Max Temperature 28 °F 32 °F 63 °F (1981)
Min Temperature 1 °F 18 °F -12 °F (1958)
Degree Days  
Heating Degree Days 50    
Moisture  
Dew Point 14 °F    
Average Humidity 80    
Maximum Humidity 92    
Minimum Humidity 43    
Precipitation  
Precipitation 0.37 in - - ()
Sea Level Pressure  
Sea Level Pressure 30.09 in    
Wind  
Wind Speed 4 mph (NW)    
Max Wind Speed 12 mph    
Max Gust Speed -    
Visibility 5 miles    
Events Fog , Snow    
Averages and records for this station are not official NWS values.
T = Trace of Precipitation, MM = Missing Value Source: NWS Daily Summary

Daily Weather History Graph

Daily Weather History Graph

Search for Another Location

Airport or City:

Trip Planner

Search our weather history database for the weather conditions in past years. The results will help you decide how hot, cold, wet, or windy it might be!

Date:

Astronomy

Feb. 18, 2014 Rise Set
Actual Time 6:39 AM EST 5:22 PM EST
Civil Twilight 6:10 AM EST 5:51 PM EST
Nautical Twilight 5:38 AM EST 6:24 PM EST
Astronomical Twilight 5:05 AM EST 6:57 PM EST
Moon 9:19 PM EST (2/18) 8:04 AM EST (2/18)
Length of Visible Light 11h 40m
Length of Day
10h 43m
Waning Gibbous, 87% of the Moon is Illuminated
Feb 18
Waning Gibbous
Feb 22
Last Quarter
Mar 1
New
Mar 8
First Quarter
Mar 16
Full

Hourly Weather History & Observations

Time (EST) Temp. Windchill Dew Point Humidity Pressure Visibility Wind Dir Wind Speed Gust Speed Precip Events Conditions
12:52 AM 3.9 °F -5.3 °F -2.9 °F 73% 30.36 in 10.0 mi WNW 4.6 mph - N/A   Clear
1:52 AM 1.9 °F -5.6 °F -5.1 °F 72% 30.36 in 10.0 mi West 3.5 mph - N/A   Clear
2:52 AM 3.9 °F - -2.9 °F 73% 30.34 in 10.0 mi Calm Calm - N/A   Clear
3:52 AM 6.1 °F - -2.9 °F 67% 30.36 in 10.0 mi Calm Calm - N/A   Clear
4:52 AM 7.0 °F -1.7 °F -0.9 °F 70% 30.33 in 10.0 mi NNE 4.6 mph - N/A   Clear
5:52 AM 9.0 °F - -0.0 °F 67% 30.34 in 10.0 mi Calm Calm - N/A   Mostly Cloudy
6:52 AM 10.9 °F - 1.0 °F 64% 30.33 in 10.0 mi Calm Calm - N/A   Overcast
7:52 AM 12.9 °F - 1.9 °F 62% 30.30 in 10.0 mi Calm Calm - N/A   Overcast
8:52 AM 16.0 °F - -2.9 °F 43% 30.28 in 10.0 mi Calm Calm - N/A   Overcast
9:52 AM 17.1 °F 11.7 °F 3.9 °F 56% 30.24 in 9.0 mi North 3.5 mph - 0.00 in   Overcast
10:52 AM 18.0 °F - 9.0 °F 68% 30.22 in 2.5 mi Calm Calm - 0.00 in Snow Light Snow
11:07 AM 18.0 °F 12.7 °F 10.0 °F 71% 30.18 in 1.0 mi NNW 3.5 mph - 0.00 in Snow Light Snow
11:15 AM 18.0 °F 11.1 °F 10.9 °F 74% 30.17 in 0.5 mi NNW 4.6 mph - 0.01 in Snow Snow
11:32 AM 18.0 °F 12.7 °F 12.9 °F 81% 30.15 in 0.5 mi NNW 3.5 mph - 0.02 in Snow Snow
11:52 AM 18.0 °F 12.7 °F 14.0 °F 84% 30.17 in 0.5 mi NW 3.5 mph - 0.03 in Fog , Snow Snow
12:40 PM 19.0 °F - 14.0 °F 81% 30.10 in 0.2 mi Calm Calm - 0.03 in Snow Heavy Snow
12:52 PM 19.0 °F 13.9 °F 15.1 °F 85% 30.12 in 0.2 mi NE 3.5 mph - 0.04 in Fog , Snow Snow
1:30 PM 19.9 °F 13.4 °F 16.0 °F 85% 30.06 in 0.2 mi NNW 4.6 mph - 0.06 in Fog , Snow Heavy Snow
1:38 PM 19.9 °F 13.4 °F 16.0 °F 85% 30.06 in 0.2 mi NNW 4.6 mph - 0.07 in Fog , Snow Heavy Snow
1:47 PM 19.4 °F 12.8 °F 15.8 °F 86% 30.05 in 0.2 mi NNW 4.6 mph - 0.09 in Fog , Snow Heavy Snow
1:52 PM 19.9 °F 13.4 °F 16.0 °F 85% 30.07 in 0.2 mi NW 4.6 mph - 0.10 in Fog , Snow Snow
2:32 PM 21.0 °F 11.4 °F 18.0 °F 88% 30.01 in 0.2 mi WNW 8.1 mph - 0.05 in Fog , Snow Snow
2:52 PM 21.9 °F 14.5 °F 18.0 °F 85% 30.02 in 0.5 mi NW 5.8 mph - 0.05 in Fog , Snow Light Snow
3:21 PM 23.0 °F 17.0 °F 19.9 °F 88% 29.98 in 0.2 mi NNW 4.6 mph - 0.03 in Fog , Snow Snow
3:39 PM 23.0 °F 14.7 °F 19.9 °F 88% 29.96 in 0.2 mi NW 6.9 mph - 0.07 in Fog , Snow Heavy Snow
3:52 PM 24.1 °F 13.7 °F 21.0 °F 88% 29.99 in 0.2 mi NW 10.4 mph - 0.08 in Fog , Snow Snow
4:02 PM 24.1 °F 14.4 °F 21.0 °F 88% 29.96 in 0.2 mi NNW 9.2 mph - 0.01 in Fog , Snow Snow
4:29 PM 25.0 °F 19.3 °F 23.0 °F 92% 29.94 in 0.2 mi Variable 4.6 mph - 0.05 in Fog , Snow Snow
4:52 PM 26.1 °F 20.5 °F 23.0 °F 88% 29.95 in 0.5 mi WNW 4.6 mph - 0.06 in Fog , Snow Light Snow
5:01 PM 26.1 °F 20.5 °F 24.1 °F 92% 29.92 in 1.0 mi NW 4.6 mph - 0.00 in Snow Light Snow
5:09 PM 26.1 °F 19.4 °F 24.1 °F 92% 29.92 in 2.0 mi WNW 5.8 mph - 0.00 in Snow Light Snow
5:15 PM 26.1 °F 19.4 °F 23.0 °F 88% 29.92 in 3.0 mi NW 5.8 mph - 0.00 in Snow Light Snow
5:34 PM 27.0 °F 19.5 °F 24.1 °F 89% 29.93 in 8.0 mi NW 6.9 mph - 0.00 in   Overcast
5:43 PM 27.0 °F 18.7 °F 24.1 °F 89% 29.93 in 10.0 mi NW 8.1 mph - 0.00 in   Overcast
5:52 PM 28.0 °F 20.0 °F 24.1 °F 85% 29.95 in 10.0 mi NNW 8.1 mph - 0.00 in   Overcast
6:00 PM 28.0 °F 20.0 °F 25.0 °F 88% 29.94 in 9.0 mi NW 8.1 mph - 0.00 in Snow Light Snow
6:52 PM 28.9 °F 19.8 °F 24.1 °F 82% 29.96 in 8.0 mi NW 10.4 mph - 0.01 in   Overcast
7:04 PM 27.0 °F 16.7 °F 21.9 °F 81% 29.95 in 10.0 mi WNW 11.5 mph - N/A   Overcast
7:52 PM 26.1 °F 17.6 °F 19.9 °F 78% 29.98 in 10.0 mi NW 8.1 mph - N/A   Mostly Cloudy
8:52 PM 23.0 °F 13.1 °F 17.1 °F 78% 30.00 in 10.0 mi NW 9.2 mph - N/A   Clear
9:52 PM 23.0 °F 13.1 °F 17.1 °F 78% 30.03 in 10.0 mi NW 9.2 mph - N/A   Clear
10:52 PM 21.9 °F 11.0 °F 16.0 °F 78% 30.04 in 10.0 mi WNW 10.4 mph - N/A   Clear
11:52 PM 19.0 °F - 15.1 °F 85% 30.04 in 10.0 mi Calm Calm - N/A   Clear